TITAN 3C TRANSTAGE DEB, 35502

Orbit data source: Space-Track

TITAN 3C TRANSTAGE DEB, 35502 is space debris in HEO originally from a launch on Tue, 21 Dec 1965 UTC launched from the Air Force Eastern Test Range (AFETR). Debris objects in space refer to the collection of defunct objects orbiting the Earth. Examples of debris include non-operational satellites, rocket bodies, and fragments generated from explosions, collisions, or faulty payload assembly.

Loading next visibility...
Identifier
35502, 1965-108DH
Orbit
HEO
Country
Flag of USUS
Related business
Manufacturer
Unknown
Mission
Spacecraft
Bus & Motor
Unknown
Mass
Unknown
Launch date (UTC)
1965-12-21 (60 years ago)
Launch vehicle
Unknown
Launch site
Air Force Eastern Test Range (AFETR)
Object type
Payload
Rocket body
Debris
Shape & HBR
Unknown
Radar Cross Section
Small (<0.1 m²)

Expand to show TLE details & history
Last TLE update: 11 hours ago

TLE from 11 hours ago
0 TITAN 3C TRANSTAGE DEB
1 35502U 65108DH  26121.49117609  .00000470  00000-0  13941-2 0  9995
2 35502  26.6900 217.0263 6607159  55.6798 350.1819  3.03813906   937
Epoch: 2026-05-01T11:47Z
TLE epoch observation values (Epoch: 2026-05-01T11:47:17.614Z)
Latitude
-0.00002°
Longitude
-179.16503°
Altitude
1,883.633 km
Speed
8.758 km/s
True Right ascension
14h 28m 19s
True Declination
0° 00' 00"
Sunlit
Object was in full shadow at epoch
Visualization orbit readout
Latitude
Unknown
Longitude
Unknown
Altitude
Unknown
Speed
Unknown
Apparent Right ascension
Unknown
Apparent Declination
Unknown
Sunlit
N/A
Visualization observer readout
Local Sidereal Time
06:43:13
Azimuth
Unknown
Elevation
Unknown
Doppler factor
Unknown
Orbital elements
Apogee altitude
27,069.861 km
Perigee altitude
455.286 km
Semi-major axis
20,140.71 km
Eccentricity
0.66072
Inclination
26.69°
RAAN
217.0263°
Arg. of periapsis
55.6798°
True anomaly
304.02989°
Mean anomaly
350.1819°
Eccentric anomaly
332.98913°
Mean motion
0.75933 °/min
Orbital period
474.1 mins
BSTAR
0.0013941
Loading maneuver chart data...
Computing Atmospheric mass density...

Documentation

Showing up to 5 results
|